GW1717 Weather Reports


Display with metric or nautical units.
time (UTC)temp
F
wind
direction
speed
MPH
gust
MPH
rain 1hr
in
rain 24hr
in
rain mn
in
humidity
%
barometer
mb
20260504150207 55 147 2.0 2.0 0.00 0.00 0.00 65 1016.3
20260504141136 52 81 0.0 1.0 0.00 0.00 0.00 62 1015.9
20260504140633 51 51 0.0 1.0 0.00 0.00 0.00 67 1016.1
20260504140129 50 78 0.0 1.0 0.00 0.00 0.00 77 1016.1
20260504130557 47 82 0.0 1.0 0.00 0.00 0.00 78 1015.0
20260504110445 49 53 0.0 0.0 0.00 0.00 0.00 72 1014.3
20260504100401 49 26 0.0 1.0 0.00 0.00 0.00 68 1014.2
20260504081754 53 82 0.0 0.0 0.00 0.00 0.00 64 1014.1
20260504081251 52 72 0.0 0.0 0.00 0.00 0.00 63 1014.1
20260504080747 52 72 0.0 0.0 0.00 0.00 0.00 63 1013.9
20260504080243 52 74 0.0 0.0 0.00 0.00 0.00 63 1013.9
20260504070211 54 44 0.0 0.0 0.00 0.00 0.00 61 1014.0
20260504060132 55 66 0.0 0.0 0.00 0.00 0.00 60 1013.5
20260504050600 59 100 0.0 0.0 0.00 0.00 0.00 55 1013.6
20260504045554 59 58 0.0 0.0 0.00 0.00 0.00 55 1013.4
20260504045049 60 100 0.0 1.0 0.00 0.00 0.00 52 1013.4
20260504044547 59 46 0.0 0.0 0.00 0.00 0.00 58 1013.5
20260504044043 59 19 3.0 3.0 0.00 0.00 0.00 54 1013.6
20260504043541 60 88 0.0 0.0 0.00 0.00 0.00 52 1013.4
20260504043038 61 53 0.0 1.0 0.00 0.00 0.00 49 1013.5
20260504042535 61 225 1.0 1.0 0.00 0.00 0.00 47 1013.3
20260504042032 61 96 0.0 1.0 0.00 0.00 0.00 48 1013.3
20260504041528 61 222 1.0 1.0 0.00 0.00 0.00 49 1013.2
20260504041024 61 185 1.0 1.0 0.00 0.00 0.00 52 1013.1
20260504040521 61 46 1.0 1.0 0.00 0.00 0.00 54 1013.3
20260504040018 60 88 1.0 1.0 0.00 0.00 0.00 51 1013.2
20260504035515 61 67 0.0 0.0 0.00 0.00 0.00 51 1012.8
20260504035011 62 83 0.0 0.0 0.00 0.00 0.00 50 1012.9
20260504034509 63 48 1.0 1.0 0.00 0.00 0.00 52 1013.0
20260504034006 63 84 0.0 0.0 0.00 0.00 0.00 48 1013.0
20260504033504 63 145 1.0 1.0 0.00 0.00 0.00 47 1012.9
20260504033001 63 88 0.0 0.0 0.00 0.00 0.00 47 1013.1
20260504032457 63 209 1.0 2.0 0.00 0.00 0.00 46 1013.1
20260504031954 63 79 0.0 0.0 0.00 0.00 0.00 47 1012.7
20260504031451 63 84 0.0 0.0 0.00 0.00 0.00 49 1012.8
20260504030948 63 69 0.0 0.0 0.00 0.00 0.00 50 1012.8
20260504030445 64 40 0.0 1.0 0.00 0.00 0.00 51 1012.9
20260504025941 64 26 2.0 3.0 0.00 0.00 0.00 49 1012.8
20260504025438 64 112 0.0 0.0 0.00 0.00 0.00 46 1012.8
20260504024935 65 75 0.0 0.0 0.00 0.00 0.00 46 1012.9
20260504024432 66 46 0.0 0.0 0.00 0.00 0.00 45 1012.8
20260504023929 66 78 0.0 0.0 0.00 0.00 0.00 41 1012.4
20260504023425 66 63 0.0 0.0 0.00 0.00 0.00 44 1012.6
20260504022921 67 68 0.0 0.0 0.00 0.00 0.00 41 1012.7
20260504022418 67 103 0.0 0.0 0.00 0.00 0.00 42 1012.4
20260504021914 67 166 1.0 1.0 0.00 0.00 0.00 41 1012.3
20260504021411 68 11 1.0 2.0 0.00 0.00 0.00 41 1012.6
20260504020909 68 86 1.0 2.0 0.00 0.00 0.00 41 1012.4
20260504020405 68 202 0.0 1.0 0.00 0.00 0.00 40 1012.6
20260504015902 69 163 1.0 2.0 0.00 0.00 0.00 40 1012.4
20260504015358 69 10 1.0 1.0 0.00 0.00 0.00 38 1012.8
20260504014854 69 104 0.0 1.0 0.00 0.00 0.00 40 1012.2
20260504014350 69 91 0.0 0.0 0.00 0.00 0.00 37 1012.4
20260504013847 69 217 1.0 1.0 0.00 0.00 0.00 38 1012.7
20260504013345 69 83 0.0 0.0 0.00 0.00 0.00 38 1012.6
20260504012842 69 132 0.0 0.0 0.00 0.00 0.00 39 1012.3
20260504012339 69 148 0.0 1.0 0.00 0.00 0.00 38 1012.4
20260504011837 68 85 1.0 2.0 0.00 0.00 0.00 32 1012.4
20260504011333 67 67 0.0 0.0 0.00 0.00 0.00 39 1012.7
20260504010829 68 72 0.0 0.0 0.00 0.00 0.00 40 1012.8
20260504010325 68 138 1.0 1.0 0.00 0.00 0.00 42 1012.8
20260504005822 68 65 1.0 1.0 0.00 0.00 0.00 41 1012.7
20260504005319 68 83 0.0 0.0 0.00 0.00 0.00 39 1012.8
20260504004816 68 96 0.0 0.0 0.00 0.00 0.00 41 1012.7
20260504004314 68 94 3.0 3.0 0.00 0.00 0.00 40 1012.8
20260504003810 69 169 1.0 2.0 0.00 0.00 0.00 42 1012.8
20260504003307 69 72 0.0 0.0 0.00 0.00 0.00 41 1012.8
20260504002803 69 109 0.0 0.0 0.00 0.00 0.00 40 1013.0
20260504002300 69 125 1.0 1.0 0.00 0.00 0.00 41 1013.0
20260504001758 69 99 0.0 1.0 0.00 0.00 0.00 43 1013.1
20260504001255 69 95 0.0 1.0 0.00 0.00 0.00 42 1013.2
20260504000752 69 92 1.0 1.0 0.00 0.00 0.00 40 1013.1
20260504000249 69 214 1.0 2.0 0.00 0.00 0.00 37 1012.9
20260503235747 70 100 0.0 1.0 0.00 0.00 0.00 38 1013.2
20260503235244 71 87 0.0 1.0 0.00 0.00 0.00 37 1013.2
20260503234741 71 185 1.0 1.0 0.00 0.00 0.00 37 1013.1
20260503234239 71 135 1.0 1.0 0.00 0.00 0.00 39 1013.1
20260503233736 72 87 0.0 0.0 0.00 0.00 0.00 37 1013.1
20260503233232 73 92 0.0 0.0 0.00 0.00 0.00 36 1013.2
20260503232729 73 349 0.0 0.0 0.00 0.00 0.00 37 1013.3
20260503232226 74 92 0.0 0.0 0.00 0.00 0.00 39 1013.2
20260503231725 74 75 0.0 0.0 0.00 0.00 0.00 30 1013.3
20260503231221 74 134 1.0 1.0 0.00 0.00 0.00 35 1013.3
20260503230717 75 87 0.0 0.0 0.00 0.00 0.00 35 1013.3
20260503230214 76 124 1.0 1.0 0.00 0.00 0.00 33 1013.5
20260503225712 77 75 0.0 0.0 0.00 0.00 0.00 35 1013.4
20260503225211 77 82 0.0 0.0 0.00 0.00 0.00 35 1013.5
20260503224709 78 97 1.0 1.0 0.00 0.00 0.00 28 1013.7
20260503224207 77 74 0.0 0.0 0.00 0.00 0.00 33 1013.7
20260503223704 75 49 0.0 1.0 0.00 0.00 0.00 31 1013.7
20260503223201 75 90 1.0 1.0 0.00 0.00 0.00 28 1013.9
20260503222658 75 80 0.0 0.0 0.00 0.00 0.00 29 1013.9
20260503222155 75 103 0.0 1.0 0.00 0.00 0.00 30 1014.1
20260503221654 75 92 1.0 1.0 0.00 0.00 0.00 29 1014.0
20260503221151 74 55 1.0 2.0 0.00 0.00 0.00 32 1014.3
20260503220647 74 94 0.0 1.0 0.00 0.00 0.00 32 1014.1
20260503220143 74 86 1.0 2.0 0.00 0.00 0.00 32 1014.4
20260503215636 74 76 0.0 1.0 0.00 0.00 0.00 31 1014.3
20260503215132 74 88 1.0 2.0 0.00 0.00 0.00 29 1014.6
20260503214631 74 75 0.0 0.0 0.00 0.00 0.00 31 1014.7
20260503214126 75 85 0.0 0.0 0.00 0.00 0.00 32 1014.9
20260503213620 76 88 0.0 1.0 0.00 0.00 0.00 32 1014.7
20260503213116 73 87 0.0 0.0 0.00 0.00 0.00 31 1014.9
20260503212614 74 77 0.0 1.0 0.00 0.00 0.00 31 1014.9
20260503212111 74 127 0.0 1.0 0.00 0.00 0.00 32 1015.2
20260503211609 73 81 0.0 1.0 0.00 0.00 0.00 34 1015.4
20260503211104 71 70 0.0 1.0 0.00 0.00 0.00 34 1015.4
20260503210601 72 57 1.0 2.0 0.00 0.00 0.00 35 1015.4
20260503210056 70 56 0.0 0.0 0.00 0.00 0.00 35 1015.3
20260503205553 69 60 1.0 2.0 0.00 0.00 0.00 37 1015.4
20260503205049 69 91 0.0 0.0 0.00 0.00 0.00 36 1015.7
20260503204547 70 64 2.0 2.0 0.00 0.00 0.00 35 1015.5
20260503204044 70 79 0.0 1.0 0.00 0.00 0.00 36 1015.6
20260503203541 69 81 0.0 1.0 0.00 0.00 0.00 38 1015.8
20260503203038 68 75 0.0 0.0 0.00 0.00 0.00 37 1016.0
20260503202536 67 74 0.0 0.0 0.00 0.00 0.00 38 1016.0
20260503202034 68 76 0.0 1.0 0.00 0.00 0.00 39 1016.2
20260503201532 68 45 1.0 2.0 0.00 0.00 0.00 38 1016.1
20260503201028 67 77 0.0 0.0 0.00 0.00 0.00 38 1016.1
20260503200524 67 46 1.0 1.0 0.00 0.00 0.00 39 1016.3
20260503200021 67 93 0.0 1.0 0.00 0.00 0.00 42 1016.3
20260503195519 67 77 0.0 0.0 0.00 0.00 0.00 43 1016.6
20260503195015 66 88 0.0 1.0 0.00 0.00 0.00 39 1016.5
20260503194513 68 64 1.0 2.0 0.00 0.00 0.00 41 1016.8
20260503194012 66 48 2.0 2.0 0.00 0.00 0.00 42 1016.9
20260503193509 65 37 3.0 3.0 0.00 0.00 0.00 40 1016.9
20260503193004 64 57 1.0 1.0 0.00 0.00 0.00 42 1016.9
20260503192501 64 80 0.0 0.0 0.00 0.00 0.00 43 1017.0
20260503191956 64 86 0.0 0.0 0.00 0.00 0.00 45 1017.1
20260503191454 63 66 1.0 1.0 0.00 0.00 0.00 42 1017.3
20260503190950 63 67 0.0 1.0 0.00 0.00 0.00 44 1017.2
20260503190447 62 91 1.0 1.0 0.00 0.00 0.00 46 1017.4
20260503185944 60 35 1.0 1.0 0.00 0.00 0.00 47 1017.4
20260503185441 62 69 1.0 1.0 0.00 0.00 0.00 46 1017.7
20260503184940 63 83 0.0 0.0 0.00 0.00 0.00 49 1017.6
20260503184437 62 58 1.0 1.0 0.00 0.00 0.00 45 1017.7
20260503183933 62 102 1.0 1.0 0.00 0.00 0.00 45 1017.8
20260503183430 62 65 1.0 2.0 0.00 0.00 0.00 49 1017.9
20260503182927 63 94 1.0 1.0 0.00 0.00 0.00 46 1017.7
20260503182426 61 77 2.0 2.0 0.00 0.00 0.00 46 1017.6
20260503181923 62 78 1.0 1.0 0.00 0.00 0.00 46 1017.8
20260503181420 61 77 1.0 2.0 0.00 0.00 0.00 46 1018.1
20260503180916 60 55 1.0 2.0 0.00 0.00 0.00 48 1018.1
20260503180414 61 74 0.0 1.0 0.00 0.00 0.00 50 1018.3
20260503175911 60 77 0.0 0.0 0.00 0.00 0.00 55 1018.0
20260503175409 59 82 0.0 1.0 0.00 0.00 0.00 50 1018.2
20260503174904 59 75 0.0 0.0 0.00 0.00 0.00 52 1018.2
20260503174402 58 75 1.0 1.0 0.00 0.00 0.00 52 1018.2
20260503173857 58 55 2.0 3.0 0.00 0.00 0.00 51 1018.2
20260503173354 58 69 3.0 3.0 0.00 0.00 0.00 53 1018.7
20260503172850 58 96 1.0 1.0 0.00 0.00 0.00 49 1018.8
20260503172348 58 88 1.0 1.0 0.00 0.00 0.00 50 1018.9
20260503171844 57 120 3.0 5.0 0.00 0.00 0.00 52 1019.1
20260503171341 57 83 3.0 5.0 0.00 0.00 0.00 52 1019.0
20260503170838 58 53 2.0 2.0 0.00 0.00 0.00 51 1018.9
20260503170335 58 62 2.0 2.0 0.00 0.00 0.00 53 1019.2
20260503150727 55 47 1.0 2.0 0.00 0.00 0.00 63 1020.4